EW8016 Weather Reports


Display with metric or nautical units.
time (UTC)temp
F
wind
direction
speed
MPH
gust
MPH
rain 1hr
in
rain 24hr
in
rain mn
in
humidity
%
barometer
mb
20260508061222 48 66 1.0 6.0 0.00 0.00 0.00 96 1018.6
20260508060506 47 60 1.0 6.0 0.00 0.00 0.00 96 1018.7
20260508060003 46 60 1.0 6.0 0.00 0.00 0.00 96 1018.7
20260508055503 46 62 1.0 4.0 0.00 0.00 0.00 96 1018.7
20260508055003 46 65 1.0 4.0 0.00 0.00 0.00 96 1018.8
20260508054508 45 62 1.0 3.0 0.00 0.00 0.00 96 1018.7
20260508054220 45 58 1.0 3.0 0.00 0.00 0.00 96 1018.7
20260508053718 45 54 2.0 6.0 0.00 0.00 0.00 96 1018.7
20260508053003 44 64 2.0 6.0 0.00 0.00 0.00 96 1018.7
20260508052717 44 64 1.0 4.0 0.00 0.00 0.00 96 1018.7
20260508052005 44 50 2.0 4.0 0.00 0.00 0.00 96 1018.5
20260508051503 44 45 1.0 4.0 0.00 0.00 0.00 96 1018.6
20260508051005 43 45 1.0 5.0 0.00 0.00 0.00 96 1018.5
20260508050716 43 45 1.0 5.0 0.00 0.00 0.00 96 1018.5
20260508050003 43 38 0.0 2.0 0.00 0.00 0.00 96 1018.5
20260508045503 43 0 0.0 0.0 0.00 0.00 0.00 96 1018.5
20260508045004 43 0 0.0 0.0 0.00 0.00 0.00 96 1018.5
20260508044506 42 0 0.0 0.0 0.00 0.00 0.00 96 1018.4
20260508044219 42 0 0.0 0.0 0.00 0.00 0.00 95 1018.4
20260508043504 42 0 0.0 0.0 0.00 0.00 0.00 95 1018.5
20260508043006 42 0 0.0 0.0 0.00 0.00 0.00 95 1018.4
20260508042503 42 0 0.0 0.0 0.00 0.00 0.00 95 1018.4
20260508042007 42 0 0.0 0.0 0.00 0.00 0.00 95 1018.4
20260508041504 42 0 0.0 0.0 0.00 0.00 0.00 95 1018.4
20260508041003 42 0 0.0 0.0 0.00 0.00 0.00 95 1018.3
20260508040506 42 0 0.0 0.0 0.00 0.00 0.00 95 1018.3
20260508040003 42 0 0.0 0.0 0.00 0.00 0.00 95 1018.3
20260508035505 42 0 0.0 0.0 0.00 0.00 0.00 95 1018.3
20260508035219 42 0 0.0 0.0 0.00 0.00 0.00 95 1018.3
20260508034503 42 69 0.0 1.0 0.00 0.00 0.00 95 1018.2
20260508034004 43 69 0.0 1.0 0.00 0.00 0.00 95 1018.2
20260508033503 43 69 0.0 2.0 0.00 0.00 0.00 95 1018.2
20260508033004 43 69 0.0 3.0 0.00 0.00 0.00 95 1018.2
20260508032503 43 68 1.0 3.0 0.00 0.00 0.00 95 1018.2
20260508032219 43 68 0.0 3.0 0.00 0.00 0.00 95 1018.2
20260508031503 43 59 1.0 4.0 0.00 0.00 0.00 95 1018.2
20260508031005 43 59 1.0 4.0 0.00 0.00 0.00 95 1018.1
20260508030503 43 61 1.0 4.0 0.00 0.00 0.00 95 1018.1
20260508030005 43 46 1.0 4.0 0.00 0.00 0.00 94 1018.1
20260508025503 43 37 0.0 3.0 0.00 0.00 0.00 94 1018.2
20260508025005 43 29 0.0 3.0 0.00 0.00 0.00 94 1018.2
20260508024503 43 37 1.0 3.0 0.00 0.00 0.00 94 1018.1
20260508024003 43 44 1.0 3.0 0.00 0.00 0.00 94 1018.2
20260508023505 43 44 1.0 3.0 0.00 0.00 0.00 94 1018.2
20260508023003 43 45 1.0 2.0 0.00 0.00 0.00 94 1018.2
20260508022719 43 51 1.0 3.0 0.00 0.00 0.00 94 1018.2
20260508022004 43 65 0.0 3.0 0.00 0.00 0.00 94 1018.2
20260508021503 43 0 0.0 0.0 0.00 0.00 0.00 94 1018.2
20260508021004 43 74 0.0 2.0 0.00 0.00 0.00 94 1018.2
20260508020719 43 74 0.0 2.0 0.00 0.00 0.00 94 1018.3
20260508020003 43 74 1.0 3.0 0.00 0.00 0.00 94 1018.3
20260508015506 43 74 1.0 2.0 0.00 0.00 0.00 94 1018.4
20260508015004 43 74 1.0 3.0 0.00 0.00 0.00 94 1018.5
20260508014503 43 74 0.0 3.0 0.00 0.00 0.00 94 1018.4
20260508014007 43 0 0.0 0.0 0.00 0.00 0.00 93 1018.4
20260508013503 43 0 0.0 0.0 0.00 0.00 0.00 94 1018.4
20260508013006 43 0 0.0 0.0 0.00 0.00 0.00 94 1018.4
20260508012505 43 74 0.0 3.0 0.00 0.00 0.00 93 1018.5
20260508012003 43 74 1.0 3.0 0.00 0.00 0.00 93 1018.4
20260508011506 43 74 1.0 2.0 0.00 0.00 0.00 93 1018.5
20260508011004 43 0 0.0 0.0 0.00 0.00 0.00 93 1018.5
20260508010719 43 0 0.0 0.0 0.00 0.00 0.00 93 1018.5
20260508010004 43 0 0.0 0.0 0.00 0.00 0.00 92 1018.5
20260508005719 43 0 0.0 0.0 0.00 0.00 0.00 92 1018.5
20260508005004 44 0 0.0 0.0 0.00 0.00 0.00 92 1018.5
20260508004503 44 0 0.0 0.0 0.00 0.00 0.00 92 1018.5
20260508004005 44 0 0.0 0.0 0.00 0.00 0.00 92 1018.6
20260508003505 44 0 0.0 0.0 0.00 0.00 0.00 92 1018.7
20260508003005 44 0 0.0 0.0 0.00 0.00 0.00 92 1018.6
20260508002503 44 0 0.0 0.0 0.00 0.00 0.00 92 1018.6
20260508002220 44 0 0.0 0.0 0.00 0.00 0.00 92 1018.5
20260508001503 44 0 0.0 0.0 0.00 0.00 0.00 91 1018.6
20260508001003 45 0 0.0 0.0 0.00 0.00 0.00 91 1018.6
20260508000505 45 0 0.0 0.0 0.00 0.00 0.00 91 1018.6
20260508000219 45 0 0.0 0.0 0.00 0.00 0.00 91 1018.6
20260507235507 45 0 0.0 0.0 0.00 0.00 0.00 91 1018.5
20260507235005 45 74 0.0 1.0 0.00 0.00 0.00 91 1018.4
20260507234503 45 74 0.0 2.0 0.00 0.00 0.00 91 1018.5
20260507234004 45 74 0.0 2.0 0.00 0.00 0.00 91 1018.4
20260507233504 46 74 0.0 2.0 0.00 0.00 0.00 90 1018.4
20260507233007 46 74 0.0 2.0 0.00 0.00 0.00 90 1018.4
20260507232503 46 74 0.0 1.0 0.00 0.00 0.00 90 1018.3
20260507232005 46 0 0.0 0.0 0.00 0.00 0.00 90 1018.3
20260507231718 46 0 0.0 0.0 0.00 0.00 0.00 89 1018.3
20260507231006 46 0 0.0 0.0 0.00 0.00 0.00 89 1018.3
20260507230718 46 0 0.0 0.0 0.00 0.00 0.00 89 1018.4
20260507230003 46 0 0.0 0.0 0.00 0.00 0.00 88 1018.4
20260507225505 46 0 0.0 0.0 0.00 0.00 0.00 88 1018.4
20260507225003 47 0 0.0 0.0 0.00 0.00 0.00 88 1018.5
20260507224506 47 0 0.0 0.0 0.00 0.00 0.00 88 1018.4
20260507224003 47 0 0.0 0.0 0.00 0.00 0.00 87 1018.4
20260507223718 47 0 0.0 0.0 0.00 0.00 0.00 87 1018.5
20260507223004 47 0 0.0 0.0 0.00 0.00 0.00 86 1018.5
20260507222718 48 74 0.0 1.0 0.00 0.00 0.00 86 1018.4
20260507222219 48 74 0.0 2.0 0.00 0.00 0.00 86 1018.3
20260507221504 48 74 0.0 3.0 0.00 0.00 0.00 85 1018.3
20260507221217 48 74 0.0 3.0 0.00 0.00 0.00 85 1018.3
20260507220505 49 0 0.0 0.0 0.00 0.00 0.00 84 1018.3
20260507220006 49 46 0.0 2.0 0.00 0.00 0.00 84 1018.3
20260507215505 49 50 0.0 4.0 0.00 0.00 0.00 84 1018.3
20260507215003 49 69 1.0 4.0 0.00 0.00 0.00 83 1018.3
20260507214503 50 78 1.0 4.0 0.00 0.00 0.00 83 1018.3
20260507214008 50 80 1.0 3.0 0.00 0.00 0.00 82 1018.2
20260507213503 50 100 1.0 4.0 0.00 0.00 0.00 82 1018.2
20260507213003 50 109 1.0 4.0 0.00 0.00 0.00 82 1018.3
20260507212503 51 112 1.0 3.0 0.00 0.00 0.00 81 1018.3
20260507212007 51 117 1.0 4.0 0.00 0.00 0.00 81 1018.4
20260507211503 51 113 2.0 5.0 0.00 0.00 0.00 80 1018.4
20260507211003 51 101 2.0 5.0 0.00 0.00 0.00 80 1018.3
20260507210719 51 105 1.0 4.0 0.00 0.00 0.00 80 1018.3
20260507210005 52 110 2.0 7.0 0.00 0.00 0.00 80 1018.3
20260507205505 52 112 2.0 7.0 0.00 0.00 0.00 79 1018.2
20260507205008 52 96 1.0 4.0 0.00 0.00 0.00 79 1018.2
20260507204721 52 95 1.0 4.0 0.00 0.00 0.00 79 1018.2
20260507204008 52 85 3.0 8.0 0.00 0.00 0.00 78 1018.1
20260507203504 52 85 2.0 8.0 0.00 0.00 0.00 78 1018.1
20260507203218 52 83 2.0 6.0 0.00 0.00 0.00 77 1018.0
20260507202506 53 78 2.0 6.0 0.00 0.00 0.00 77 1017.9
20260507202005 53 79 2.0 7.0 0.00 0.00 0.00 77 1018.0
20260507201503 53 76 2.0 7.0 0.00 0.00 0.00 77 1017.9
20260507201007 53 77 2.0 7.0 0.00 0.00 0.00 76 1017.8
20260507200503 53 79 2.0 7.0 0.00 0.00 0.00 76 1017.7
20260507200003 53 72 2.0 6.0 0.00 0.00 0.00 76 1017.7
20260507195504 54 74 2.0 9.0 0.00 0.00 0.00 76 1017.6
20260507195004 54 72 2.0 9.0 0.00 0.00 0.00 75 1017.6
20260507194719 54 73 3.0 7.0 0.00 0.00 0.00 75 1017.6
20260507194003 54 72 3.0 8.0 0.00 0.00 0.00 74 1017.5
20260507193503 54 66 2.0 8.0 0.00 0.00 0.00 74 1017.5
20260507193003 54 70 2.0 8.0 0.00 0.00 0.00 74 1017.5
20260507192503 54 74 2.0 6.0 0.00 0.00 0.00 74 1017.4
20260507192007 54 77 1.0 6.0 0.00 0.00 0.00 74 1017.5
20260507191505 55 81 2.0 6.0 0.00 0.00 0.00 74 1017.4
20260507191003 55 87 2.0 6.0 0.00 0.00 0.00 74 1017.4
20260507190503 55 89 1.0 6.0 0.00 0.00 0.00 73 1017.4
20260507190005 55 83 2.0 7.0 0.00 0.00 0.00 73 1017.4
20260507185504 55 83 3.0 7.0 0.00 0.00 0.00 73 1017.2
20260507185004 55 90 2.0 7.0 0.00 0.00 0.00 73 1017.2
20260507184503 55 83 3.0 10.0 0.00 0.00 0.00 72 1017.1
20260507184005 56 80 3.0 10.0 0.00 0.00 0.00 72 1017.1
20260507183511 56 85 3.0 10.0 0.00 0.00 0.00 72 1017.1
20260507183007 56 81 2.0 8.0 0.00 0.00 0.00 72 1017.1
20260507182507 56 72 2.0 8.0 0.00 0.00 0.00 71 1017.0
20260507182005 56 70 2.0 9.0 0.00 0.00 0.00 71 1017.0
20260507181505 56 68 3.0 9.0 0.00 0.00 0.00 71 1016.9
20260507181008 56 66 3.0 12.0 0.00 0.00 0.00 70 1016.9
20260507180505 57 72 3.0 12.0 0.00 0.00 0.00 70 1016.8
20260507180005 57 70 2.0 9.0 0.00 0.00 0.00 70 1016.8
20260507175507 57 70 2.0 9.0 0.00 0.00 0.00 70 1016.8
20260507175005 57 75 2.0 10.0 0.00 0.00 0.00 69 1016.6
20260507174505 57 70 3.0 10.0 0.00 0.00 0.00 69 1016.6
20260507174003 57 72 3.0 9.0 0.00 0.00 0.00 69 1016.6
20260507173503 58 79 3.0 9.0 0.00 0.00 0.00 68 1016.5
20260507173004 58 73 4.0 11.0 0.00 0.00 0.00 68 1016.6
20260507172505 58 67 3.0 11.0 0.00 0.00 0.00 67 1016.4
20260507172006 58 69 3.0 10.0 0.00 0.00 0.00 68 1016.4
20260507171503 58 71 3.0 10.0 0.00 0.00 0.00 67 1016.4
20260507171217 58 76 3.0 10.0 0.00 0.00 0.00 67 1016.4
20260507170505 59 78 3.0 13.0 0.00 0.00 0.00 66 1016.3
20260507170003 59 76 3.0 13.0 0.00 0.00 0.00 65 1016.3
20260507165503 60 72 2.0 9.0 0.00 0.00 0.00 64 1016.3
20260507165004 60 66 3.0 9.0 0.00 0.00 0.00 63 1016.2
20260507164504 60 63 3.0 9.0 0.00 0.00 0.00 62 1016.1
20260507164219 60 67 2.0 9.0 0.00 0.00 0.00 62 1016.1
20260507163503 61 80 2.0 9.0 0.00 0.00 0.00 61 1016.0
20260507163007 61 90 4.0 11.0 0.00 0.00 0.00 60 1016.0
20260507162503 61 74 4.0 11.0 0.00 0.00 0.00 59 1016.0
20260507162003 62 50 3.0 10.0 0.00 0.00 0.00 56 1015.8
20260507161504 62 36 1.0 5.0 0.00 0.00 0.00 52 1015.8
20260507161004 62 358 1.0 3.0 0.00 0.00 0.00 51 1015.7
20260507160505 62 4 2.0 5.0 0.00 0.00 0.00 48 1015.7
20260507160005 63 13 1.0 5.0 0.00 0.00 0.00 48 1015.7
20260507155505 63 35 2.0 5.0 0.00 0.00 0.00 48 1015.6
20260507155004 64 42 3.0 8.0 0.00 0.00 0.00 47 1015.6
20260507154503 64 79 3.0 8.0 0.00 0.00 0.00 49 1015.7
20260507154009 63 120 2.0 7.0 0.00 0.00 0.00 49 1015.7
20260507153504 62 78 2.0 5.0 0.00 0.00 0.00 50 1015.7
20260507153003 62 59 1.0 5.0 0.00 0.00 0.00 51 1015.7
20260507152505 62 45 1.0 4.0 0.00 0.00 0.00 51 1015.7
20260507152003 62 32 2.0 6.0 0.00 0.00 0.00 52 1015.7
20260507151507 63 36 2.0 6.0 0.00 0.00 0.00 51 1015.7
20260507151007 63 49 1.0 5.0 0.00 0.00 0.00 51 1015.7
20260507150503 63 52 1.0 5.0 0.00 0.00 0.00 50 1015.7
20260507150005 63 44 2.0 10.0 0.00 0.00 0.00 52 1015.7
20260507145505 63 62 2.0 10.0 0.00 0.00 0.00 53 1015.7
20260507145003 62 68 1.0 4.0 0.00 0.00 0.00 53 1015.6
20260507144504 62 36 1.0 4.0 0.00 0.00 0.00 54 1015.6
20260507144003 62 35 1.0 4.0 0.00 0.00 0.00 54 1015.6
20260507143505 62 33 2.0 6.0 0.00 0.00 0.00 54 1015.6
20260507143003 62 54 3.0 9.0 0.00 0.00 0.00 53 1015.7
20260507142507 62 55 2.0 9.0 0.00 0.00 0.00 52 1015.8
20260507142004 63 12 2.0 7.0 0.00 0.00 0.00 52 1015.7
20260507141503 63 4 3.0 7.0 0.00 0.00 0.00 51 1015.8
20260507141003 64 27 2.0 6.0 0.00 0.00 0.00 50 1015.8
20260507140719 64 40 3.0 7.0 0.00 0.00 0.00 48 1015.7
20260507140005 65 59 3.0 10.0 0.00 0.00 0.00 50 1015.8
20260507135503 64 67 2.0 10.0 0.00 0.00 0.00 50 1015.7
20260507135003 64 47 2.0 7.0 0.00 0.00 0.00 50 1015.7
20260507134503 63 40 2.0 5.0 0.00 0.00 0.00 50 1015.8
20260507134004 63 41 2.0 8.0 0.00 0.00 0.00 50 1015.8
20260507133504 63 42 2.0 8.0 0.00 0.00 0.00 51 1015.9
20260507133005 64 45 3.0 10.0 0.00 0.00 0.00 49 1015.8
20260507132719 64 52 3.0 10.0 0.00 0.00 0.00 51 1015.9
20260507132004 63 54 2.0 8.0 0.00 0.00 0.00 53 1015.8
20260507131716 62 12 2.0 6.0 0.00 0.00 0.00 51 1015.8
20260507131006 63 355 3.0 9.0 0.00 0.00 0.00 48 1015.8
20260507130504 64 26 3.0 10.0 0.00 0.00 0.00 49 1015.8
20260507130006 64 52 3.0 10.0 0.00 0.00 0.00 50 1015.8
20260507125506 64 65 2.0 6.0 0.00 0.00 0.00 51 1015.7
20260507125003 64 23 3.0 10.0 0.00 0.00 0.00 47 1015.8
20260507124503 64 18 3.0 10.0 0.00 0.00 0.00 46 1015.7
20260507124005 64 48 2.0 9.0 0.00 0.00 0.00 52 1015.7
20260507123720 63 53 2.0 8.0 0.00 0.00 0.00 54 1015.8
20260507123003 64 44 3.0 9.0 0.00 0.00 0.00 53 1015.7
20260507122506 63 36 3.0 11.0 0.00 0.00 0.00 56 1015.7
20260507122003 63 36 3.0 11.0 0.00 0.00 0.00 56 1015.7
20260507121505 63 38 3.0 10.0 0.00 0.00 0.00 56 1015.7
20260507121008 63 38 3.0 9.0 0.00 0.00 0.00 55 1015.8
20260507120718 63 35 4.0 15.0 0.00 0.00 0.00 54 1015.9
20260507120005 63 11 3.0 15.0 0.00 0.00 0.00 59 1015.9
20260507115504 63 14 3.0 9.0 0.00 0.01 0.00 58 1015.8
20260507115004 63 34 3.0 9.0 0.00 0.01 0.00 58 1015.9
20260507114503 63 28 3.0 12.0 0.00 0.01 0.00 59 1015.8
20260507114004 63 41 3.0 12.0 0.00 0.01 0.00 57 1015.9
20260507113503 62 38 3.0 9.0 0.00 0.01 0.00 58 1015.9
20260507113010 62 17 4.0 9.0 0.00 0.01 0.00 58 1015.9
20260507112505 62 23 5.0 14.0 0.00 0.01 0.00 59 1015.9
20260507112223 62 28 4.0 14.0 0.00 0.01 0.00 57 1015.8
20260507111503 62 55 3.0 9.0 0.00 0.02 0.00 60 1015.9
20260507111004 62 46 3.0 9.0 0.00 0.02 0.00 58 1016.0
20260507110503 62 49 3.0 10.0 0.00 0.02 0.00 60 1016.0
20260507110005 62 51 3.0 11.0 0.00 0.02 0.00 61 1016.0
20260507105503 61 50 3.0 11.0 0.00 0.02 0.00 60 1016.1
20260507105004 61 49 4.0 11.0 0.00 0.02 0.00 60 1016.0
20260507104504 61 29 4.0 11.0 0.00 0.02 0.00 62 1016.0
20260507104005 61 5 4.0 10.0 0.00 0.02 0.00 64 1016.0
20260507103503 61 8 3.0 9.0 0.00 0.02 0.00 62 1016.0
20260507103004 60 26 3.0 10.0 0.00 0.02 0.00 63 1016.0
20260507102503 60 31 4.0 10.0 0.00 0.02 0.00 62 1016.0
20260507102220 60 30 4.0 11.0 0.00 0.02 0.00 63 1016.0
20260507101719 60 16 5.0 13.0 0.00 0.02 0.00 64 1015.8
20260507101003 60 19 4.0 13.0 0.00 0.02 0.00 66 1015.9
20260507100503 60 8 3.0 9.0 0.00 0.02 0.00 68 1015.9
20260507100005 59 355 4.0 10.0 0.00 0.02 0.00 67 1015.9
20260507095506 59 358 5.0 12.0 0.00 0.02 0.00 67 1015.8
20260507095218 59 13 4.0 12.0 0.00 0.02 0.00 67 1015.7
20260507094504 59 5 4.0 11.0 0.00 0.02 0.00 67 1015.8
20260507094003 59 1 4.0 11.0 0.00 0.03 0.00 69 1015.7
20260507093721 59 9 4.0 11.0 0.00 0.03 0.00 70 1015.7
20260507093004 59 7 4.0 10.0 0.00 0.03 0.00 71 1015.6
20260507092503 58 12 4.0 10.0 0.00 0.03 0.00 69 1015.6
20260507092003 58 24 3.0 10.0 0.00 0.03 0.00 70 1015.6
20260507091503 58 8 3.0 11.0 0.00 0.03 0.00 72 1015.5
20260507091218 58 10 3.0 11.0 0.00 0.03 0.00 72 1015.4
20260507090504 58 358 3.0 11.0 0.00 0.03 0.00 72 1015.4
20260507090004 58 6 4.0 11.0 0.00 0.03 0.00 73 1015.4
20260507085504 57 22 3.0 9.0 0.00 0.03 0.00 73 1015.4
20260507085004 57 7 3.0 8.0 0.00 0.03 0.00 73 1015.4
20260507084506 57 353 3.0 9.0 0.00 0.03 0.00 74 1015.4
20260507084005 57 343 4.0 11.0 0.00 0.03 0.00 75 1015.4
20260507083504 56 3 3.0 11.0 0.00 0.03 0.00 74 1015.3
20260507083004 56 9 3.0 9.0 0.00 0.03 0.00 75 1015.4
20260507082716 56 12 3.0 9.0 0.00 0.03 0.00 76 1015.4
20260507082005 56 18 3.0 7.0 0.00 0.03 0.00 76 1015.4
20260507081503 56 354 3.0 10.0 0.00 0.04 0.00 76 1015.4
20260507081004 56 6 3.0 10.0 0.00 0.04 0.00 76 1015.4
20260507080503 56 18 2.0 8.0 0.00 0.04 0.00 78 1015.4
20260507080005 55 32 3.0 8.0 0.00 0.04 0.00 78 1015.2
20260507075507 55 46 2.0 8.0 0.00 0.04 0.00 78 1015.2
20260507075005 55 44 2.0 6.0 0.00 0.04 0.00 80 1015.2
20260507074504 54 45 2.0 6.0 0.00 0.04 0.00 79 1015.2
20260507074006 54 47 3.0 5.0 0.00 0.04 0.00 81 1015.2
20260507073505 53 45 2.0 5.0 0.00 0.04 0.00 82 1015.0
20260507073003 53 16 2.0 7.0 0.00 0.04 0.00 82 1015.1
20260507072504 53 26 2.0 7.0 0.00 0.04 0.00 84 1015.0
20260507072004 52 38 3.0 8.0 0.00 0.04 0.00 84 1015.1
20260507071503 52 30 2.0 8.0 0.00 0.04 0.00 84 1015.0
20260507071005 52 30 2.0 7.0 0.00 0.04 0.00 85 1014.9
20260507070504 51 29 3.0 7.0 0.00 0.04 0.00 85 1014.9
20260507070005 51 35 3.0 7.0 0.00 0.04 0.00 86 1014.9
20260507065718 51 36 2.0 7.0 0.00 0.04 0.00 86 1014.8
20260507065003 50 32 2.0 8.0 0.00 0.04 0.00 88 1014.9
20260507064718 50 36 3.0 8.0 0.00 0.04 0.00 88 1014.9
20260507064003 49 11 3.0 8.0 0.00 0.05 0.00 89 1014.8
20260507063505 48 1 3.0 9.0 0.00 0.05 0.00 89 1014.9
20260507063003 48 359 3.0 10.0 0.00 0.05 0.00 90 1014.7
20260507062505 48 349 4.0 10.0 0.00 0.06 0.00 90 1014.8
20260507062003 47 358 3.0 8.0 0.00 0.06 0.00 91 1014.7
20260507061504 46 11 3.0 7.0 0.00 0.06 0.00 92 1014.7